Location: Hurstbourne Priors
(51.2000°N, 1.3667°W)
Time: 19:37:57
(UTC+00:00)

Transit 4A - Pass Details

Date: 28 April 2021
Orbit: 870 x 974 km, 66.8° (Epoch: 09 May)

Event Time Altitude Azimuth Distance (km) Brightness Sun altitude
Rises 22:44:06 0° 232° (SW) 3,610 10.8 -22.1°
Reaches altitude 10° 22:46:43 10° 236° (SW) 2,654 10.1 -22.3°
Maximum altitude 22:52:47 57° 315° (NW) 1,081 8.5 -22.6°
Drops below altitude 10° 22:58:44 10° 34° (NE) 2,594 10.7 -22.9°
Sets 23:01:16 0° 38° (NE) 3,523 11.4 -23.0°
